[[{"header":{"parameterUnit":"m.s-1","parameterCategory":1,"la1":30.2991,"la2":30.254,"lo1":-89.0895,"lo2":-89.0444,"dy":0.0017,"dx":0.0017,"nx":28,"ny":28,"refTime":"2024-08-23T03:00:00:Z","depth":0,"parameterNumber":2,"parameterNumberName":"U-component_of_WINDS"},"data":[0,0,0,0,0,0,0,0,0,0,0,0,0,0,0,0,0,0,0,0,0,0,0,0,0,0,0,0,0,0,0,0,0,0,0,0,0,0,0,0,0,0,0,0,0,0,0,0,0,0,0,0,0,0,0,0,0,0,-4.6331,-4.6331,0,-4.6386,-4.6387,-4.6387,-4.6276,-4.6272,-4.6269,-4.6265,-4.6323,-4.6328,-4.6333,0,0,0,0,0,0,0,0,0,0,0,0,0,-4.6131,-4.6135,-4.6331,-4.6331,-4.6332,-4.6386,-4.6387,-4.6387,-4.6277,-4.6272,-4.6268,-4.6263,-4.6322,-4.6327,-4.6333,0,0,0,0,0,0,0,0,0,0,0,0,0,-4.6205,-4.6136,-4.6331,-4.6283,-4.628,-4.6386,-4.6387,-4.6388,-4.6277,-4.6272,-4.6266,-4.6261,-4.632,-4.6327,-4.6334,-4.649,0,0,-4.6357,-4.636,0,0,0,0,0,0,0,0,-4.6201,-4.6212,-4.629,-4.6287,-4.6283,-4.6318,-4.6337,-4.6422,-4.6279,-4.6278,-4.6265,-4.6259,-4.6326,-4.6333,-4.6355,-4.6492,-4.6495,-4.6358,-4.6362,-4.6365,-4.6367,0,0,0,0,0,0,0,-4.6196,-4.621,-4.6353,-4.6291,-4.6287,-4.626,-4.6264,-4.6353,-4.6332,-4.6278,-4.627,-4.6278,-4.6323,-4.6348,-4.6356,-4.6496,-4.6357,-4.6364,-4.6369,-4.6371,-4.6764,-4.677,0,0,0,0,0,0,-4.6197,-4.6206,-4.6351,-4.6354,-4.6227,-4.6268,-4.6273,-4.6313,-4.6331,-4.6329,-4.6283,-4.6273,-4.6338,-4.6347,-4.6357,-4.6541,-4.6365,-4.6372,-4.6376,-4.6758,-4.6765,-4.6772,0,0,0,0,0,0,-4.6193,-4.6211,-4.6349,-4.6278,-4.6293,-4.6277,-4.6323,-4.6317,-4.6341,-4.6335,-4.633,-4.6312,-4.6334,-4.6347,-4.6458,-4.6541,-4.6375,-4.6382,-4.6751,-4.676,-4.6768,-4.6909,0,0,0,0,0,0,-4.6187,-4.621,-4.6268,-4.628,-4.6298,-4.6448,-4.6328,-4.6322,-4.6354,-4.6342,-4.6361,-4.6359,-4.6331,-4.6447,-4.6465,-4.6549,-4.6388,-4.6743,-4.6755,-4.6766,-4.6897,-4.6922,-4.6943,0,0,0,0,0,-4.6181,-4.6306,-4.6272,-4.629,-4.637,-4.6453,-4.6463,-4.6428,-4.6361,-4.642,-4.6416,-4.6358,-4.6529,-4.6459,-4.6479,-4.6566,-4.6738,-4.6752,-4.6765,-4.6887,-4.6917,-4.6943,0,0,0,0,0,0,-4.6305,-4.6307,-4.6269,-4.6402,-4.6428,-4.6434,-4.6507,-4.6461,-4.6507,-4.6494,-4.6449,-4.6454,-4.6574,-4.6581,-4.6503,-4.6717,-4.6622,-4.664,-4.6709,-4.6738,-4.676,-4.6756,-4.6394,0,0,0,0,0,-4.6347,-4.6414,-4.6412,-4.6529,-4.6545,-4.6524,-4.6559,-4.6529,-4.6555,-4.6566,-4.6569,-4.6597,-4.6657,-4.6697,-4.6752,-4.6898,-4.6901,-4.6967,-4.699,-4.7009,-4.7025,-4.7104,-4.7133,-4.6816,-4.6816,-4.6815,0,0,-4.6437,-4.6446,-4.6491,-4.6555,-4.6572,-4.6642,-4.6534,-4.6613,-4.6665,-4.6578,-4.6683,-4.6687,-4.6715,-4.6844,-4.6901,-4.6853,-4.7114,-4.7026,-4.7041,-4.7047,-4.7121,-4.7151,-4.7177,-4.6825,-4.6823,-4.6822,0,0,-4.6635,-4.6649,-4.6748,-4.6767,-4.6794,-4.678,-4.6804,-4.6817,-4.6817,-4.6921,-4.6857,-4.6919,-4.7023,-4.7045,-4.7071,-4.7279,-4.7228,-4.7298,-4.7419,-4.7496,-4.7521,-4.7542,-4.7618,-4.7645,-4.7314,-4.7314,-4.7315,0,-4.6742,-4.6845,-4.6805,-4.6889,-4.6919,-4.6843,-4.6944,-4.6965,-4.7009,-4.7032,-4.6978,-4.7107,-4.712,-4.7254,-4.7305,-4.7328,-4.7355,-4.7296,-4.752,-4.7542,-4.7562,-4.7633,-4.7661,-4.7323,-4.7322,-4.7321,-4.732,0,-4.6977,-4.7049,-4.7126,-4.7171,-4.721,-4.7302,-4.7276,-4.732,-4.7288,-4.728,-4.7388,-4.7401,-4.7457,-4.7487,-4.7456,-4.7617,-4.7587,-4.7527,-4.7431,-4.7601,-4.7667,-4.7694,-4.7335,-4.7332,-4.7329,-4.7327,0,0,-4.7255,-4.7275,-4.7305,-4.7324,-4.7349,-4.7404,-4.7493,-4.7548,-4.7587,-4.762,-4.7694,-4.7785,-4.773,-4.7759,-4.773,-4.7797,-4.7962,-4.7729,-4.7729,-4.7773,-4.8141,-4.8186,-4.8219,-4.7928,-4.7933,-4.7937,-4.8139,0,-4.7452,-4.7604,-4.7571,-4.7721,-4.7788,-4.7717,-4.7795,-4.7819,-4.7813,-4.787,-4.7864,-4.7929,-4.7851,-4.7869,-4.7932,-4.7929,-4.8036,-4.7914,-4.7998,-4.8001,-4.7993,-4.8253,-4.83,-4.849,-4.8165,-4.8169,-4.8172,0,-4.7702,-4.7744,-4.7902,-4.7916,-4.7943,-4.8013,-4.8061,-4.8116,-4.8142,-4.8133,-4.8166,-4.8124,-4.8213,-4.8116,-4.8238,-4.8156,-4.8189,-4.8192,-4.8199,-4.8206,-4.8097,-4.8268,-4.855,-4.8579,-4.8212,-4.8209,-4.8206,0,-4.789,-4.7986,-4.8093,-4.8112,-4.8131,-4.8182,-4.8193,-4.8213,-4.8248,-4.8291,-4.8313,-4.8366,-4.8395,-4.8437,-4.8411,-4.8342,-4.8538,-4.8438,-4.8534,-4.8535,-4.8579,-4.8577,-4.8872,-4.86,-4.8599,-4.8599,-4.8598,0,-4.8114,-4.8213,-4.8178,-4.8243,-4.8352,-4.8313,-4.8423,-4.8425,-4.8444,-4.8509,-4.8451,-4.8514,-4.8476,-4.8536,-4.8516,-4.8621,-4.8634,-4.8631,-4.8624,-4.8636,-4.8637,-4.8657,-4.8644,-4.8606,-4.8604,-4.8603,-4.8602,0,-4.8342,-4.8323,-4.8434,-4.8443,-4.8448,-4.8528,-4.8536,-4.8598,-4.8588,-4.8672,-4.8689,-4.8675,-4.8742,-4.8721,-4.8794,-4.878,-4.8914,-4.889,-4.8905,-4.89,-4.8997,-4.8989,-4.9316,-4.9357,-4.9058,-4.9061,-4.9063,0,-4.8487,-4.8561,-4.8579,-4.8618,-4.8633,-4.8697,-4.8733,-4.8697,-4.8737,-4.8773,-4.8831,-4.8893,-4.8941,-4.9053,-4.905,-4.9105,-4.9083,-4.9194,-4.9091,-4.9101,-4.9086,-4.9082,-4.909,-4.9215,-4.9218,-4.9221,-4.9223,0,-4.8746,-4.8732,-4.8786,-4.8837,-4.8881,-4.892,-4.8953,-4.8989,-4.8955,-4.9003,-4.9072,-4.9109,-4.9184,-4.9247,-4.9298,-4.9309,-4.9262,-4.9256,-4.9281,-4.9294,-4.93,-4.9299,-4.8962,-4.9248,-4.9246,-4.9244,-4.9243,-4.9242,-4.8937,-4.9,-4.9022,-4.9084,-4.9105,-4.9138,-4.9196,-4.9194,-4.925,-4.9308,-4.9284,-4.9363,-4.9388,-4.9451,-4.9469,-4.9531,-4.9489,-4.9525,-4.9535,-4.9545,-4.9557,-4.929,-4.954,-4.954,-4.9539,-4.9538,-4.9538,0,-4.9193,-4.9204,-4.9261,-4.931,-4.9359,-4.9309,-4.9343,-4.9388,-4.9458,-4.9485,-4.9534,-4.9613,-4.9674,-4.9676,-4.9733,-4.9783,-4.9763,-4.9799,-4.9795,-4.9799,-4.9592,-4.9564,-4.9815,-4.9814,-4.9814,-4.9814,-4.9814,-4.9814,-4.9332,-4.9437,-4.9426,-4.9541,-4.9551,-4.9628,-4.9652,-4.9682,-4.9703,-4.9794,-4.9845,-4.9845,-4.9863,-4.9921,-4.9975,-4.9974,-4.9998,-5.0044,-5.0035,-4.9841,-4.9813,-4.9787,-4.9761,-5.0049,-5.0049,-5.0237,-5.0238,-5.024]},{"header":{"parameterUnit":"m.s-1","parameterCategory":1,"la1":30.2991,"la2":30.254,"lo1":-89.0895,"lo2":-89.0444,"dy":0.0017,"dx":0.0017,"nx":28,"ny":28,"refTime":"2024-08-23T03:00:00:Z","depth":0,"parameterNumber":3,"parameterNumberName":"V-component_of_WINDS"},"data":[0,0,0,0,0,0,0,0,0,0,0,0,0,0,0,0,0,0,0,0,0,0,0,0,0,0,0,0,0,0,0,0,0,0,0,0,0,0,0,0,0,0,0,0,0,0,0,0,0,0,0,0,0,0,0,0,0,0,0.9402,0.9401,0,0.9342,0.9341,0.934,0.9317,0.9318,0.9318,0.9318,0.9253,0.9251,0.9249,0,0,0,0,0,0,0,0,0,0,0,0,0,0.9495,0.9493,0.9402,0.9401,0.94,0.9342,0.9341,0.934,0.9317,0.9318,0.9318,0.9318,0.9254,0.9251,0.9249,0,0,0,0,0,0,0,0,0,0,0,0,0,0.9447,0.9493,0.9402,0.9382,0.938,0.9342,0.9341,0.934,0.9317,0.9318,0.9318,0.9318,0.9254,0.9252,0.9249,0.9225,0,0,0.924,0.9239,0,0,0,0,0,0,0,0,0.9449,0.9443,0.9386,0.9383,0.9381,0.9337,0.935,0.9301,0.9317,0.9341,0.9318,0.9318,0.9281,0.9276,0.9264,0.9222,0.9219,0.924,0.9238,0.9237,0.9236,0,0,0,0,0,0,0,0.9453,0.9446,0.9378,0.9385,0.9382,0.9375,0.9369,0.9341,0.931,0.9339,0.9337,0.933,0.9279,0.9266,0.9262,0.9218,0.924,0.9237,0.9235,0.9234,0.9156,0.9156,0,0,0,0,0,0,0.946,0.9449,0.938,0.9376,0.9417,0.9374,0.9366,0.9351,0.931,0.9304,0.933,0.933,0.9271,0.9265,0.9259,0.923,0.9237,0.9234,0.9232,0.9156,0.9156,0.9156,0,0,0,0,0,0,0.9462,0.9454,0.9382,0.9412,0.9402,0.9372,0.9355,0.935,0.9337,0.9304,0.9298,0.9323,0.9271,0.9263,0.9234,0.9227,0.9233,0.923,0.9157,0.9156,0.9156,0.917,0,0,0,0,0,0,0.9465,0.9455,0.9446,0.9412,0.9401,0.9359,0.9354,0.9348,0.9332,0.9331,0.9295,0.9289,0.9271,0.9239,0.9232,0.9223,0.9228,0.9157,0.9157,0.9156,0.917,0.917,0.917,0,0,0,0,0,0.9468,0.9451,0.9445,0.9437,0.9389,0.9358,0.9352,0.9332,0.9332,0.9322,0.9301,0.9291,0.923,0.9236,0.9228,0.9218,0.9158,0.9157,0.9156,0.917,0.917,0.917,0,0,0,0,0,0,0.9483,0.9446,0.9439,0.9411,0.9388,0.9355,0.9342,0.9332,0.9308,0.9307,0.9282,0.9274,0.9248,0.923,0.9238,0.9194,0.9193,0.919,0.9206,0.9206,0.9206,0.921,0.9226,0,0,0,0,0,0.9484,0.9462,0.9431,0.9409,0.9398,0.9372,0.9358,0.9345,0.9319,0.9309,0.9286,0.9261,0.9236,0.922,0.9196,0.9168,0.916,0.9157,0.9158,0.9158,0.9155,0.914,0.9139,0.9153,0.9153,0.9153,0,0,0.9483,0.946,0.9448,0.9412,0.9392,0.937,0.9364,0.9341,0.9324,0.9305,0.9277,0.9259,0.923,0.9202,0.9188,0.9186,0.915,0.9157,0.9157,0.9154,0.9139,0.9138,0.9137,0.9152,0.9152,0.9152,0,0,0.9471,0.9452,0.9432,0.9414,0.9385,0.9369,0.9364,0.9332,0.932,0.9292,0.9278,0.9258,0.9215,0.9195,0.918,0.9163,0.9152,0.9156,0.9155,0.9141,0.914,0.9138,0.9132,0.9131,0.9154,0.9154,0.9154,0,0.9474,0.9441,0.9423,0.9401,0.9385,0.937,0.9349,0.9332,0.9296,0.9285,0.9285,0.9233,0.9212,0.9179,0.9175,0.9163,0.9157,0.9159,0.9141,0.914,0.9139,0.9133,0.9131,0.9155,0.9155,0.9155,0.9155,0,0.9446,0.9424,0.9411,0.9379,0.9362,0.9341,0.9319,0.9304,0.9293,0.9277,0.9248,0.9223,0.9194,0.9186,0.9174,0.9151,0.9151,0.9147,0.9144,0.9138,0.9132,0.913,0.9156,0.9155,0.9155,0.9155,0,0,0.9439,0.94,0.9395,0.9381,0.935,0.9332,0.9311,0.9284,0.9271,0.9248,0.9229,0.9195,0.9191,0.9174,0.916,0.9147,0.9136,0.9144,0.9143,0.9143,0.9111,0.9114,0.9111,0.913,0.913,0.9129,0.9113,0,0.9422,0.9384,0.9368,0.9337,0.9317,0.9303,0.9285,0.9263,0.9248,0.9228,0.9211,0.9187,0.9184,0.9173,0.916,0.9141,0.9129,0.9142,0.9111,0.9111,0.9118,0.9108,0.9111,0.9097,0.911,0.911,0.911,0,0.9397,0.9376,0.9343,0.9317,0.9307,0.9291,0.9266,0.9247,0.9223,0.9213,0.9195,0.9182,0.9159,0.9161,0.9129,0.9137,0.9124,0.9113,0.9112,0.9107,0.9109,0.9102,0.9091,0.9089,0.9106,0.9106,0.9106,0,0.9395,0.9358,0.9334,0.9323,0.9291,0.928,0.9266,0.9242,0.9228,0.9206,0.9196,0.9171,0.9157,0.9138,0.9119,0.9122,0.9089,0.9089,0.9079,0.908,0.9071,0.9072,0.9057,0.9065,0.9065,0.9065,0.9065,0,0.9377,0.9357,0.9333,0.9318,0.9296,0.9279,0.9257,0.9242,0.9222,0.9204,0.9191,0.9174,0.9151,0.9131,0.9116,0.9092,0.9086,0.9077,0.9073,0.9077,0.9078,0.9067,0.9067,0.9065,0.9065,0.9065,0.9065,0,0.9369,0.9352,0.9325,0.9298,0.9291,0.9276,0.9253,0.9238,0.9224,0.9201,0.9195,0.9171,0.9147,0.9128,0.9096,0.9086,0.9061,0.9057,0.9069,0.9067,0.9059,0.906,0.9036,0.9032,0.9043,0.9043,0.9043,0,0.9358,0.9343,0.9316,0.9303,0.929,0.927,0.9256,0.9239,0.9224,0.9198,0.9186,0.9162,0.9141,0.9104,0.9084,0.906,0.9055,0.9048,0.905,0.9056,0.9054,0.9054,0.9053,0.9047,0.9047,0.9047,0.9047,0,0.934,0.9333,0.9313,0.9292,0.9276,0.9257,0.9238,0.9229,0.9208,0.9193,0.9169,0.9154,0.9123,0.9099,0.9074,0.9059,0.9049,0.9047,0.9043,0.9047,0.9055,0.905,0.9068,0.9047,0.9047,0.9047,0.9047,0.9047,0.9329,0.9316,0.9295,0.9274,0.9259,0.9243,0.9228,0.9213,0.9193,0.9168,0.9159,0.9135,0.9113,0.9079,0.9064,0.9045,0.9043,0.9038,0.9037,0.9036,0.9036,0.9059,0.904,0.904,0.904,0.904,0.904,0,0.9309,0.9296,0.9278,0.9253,0.9237,0.9233,0.9212,0.9199,0.9178,0.916,0.9141,0.9115,0.9092,0.9072,0.9048,0.9037,0.9032,0.9031,0.9031,0.9028,0.9039,0.9044,0.9036,0.9036,0.9036,0.9036,0.9036,0.9036,0.9297,0.9275,0.9266,0.9236,0.9223,0.9201,0.919,0.9174,0.916,0.9132,0.9114,0.9101,0.9082,0.9058,0.9037,0.9031,0.9023,0.9023,0.9016,0.9026,0.9027,0.9028,0.9032,0.9022,0.9022,0.9007,0.9007,0.9007]}]]